Location: Fond Mahaut
(18.0707°N, 63.0465°W)
Time: 03:15:50
(UTC+00:00)

Cosmos 1023 Rocket - Pass Details

Date: 08 December 2019
Orbit: 736 x 773 km, 74.1° (Epoch: 20 January)

Event Time Altitude Azimuth Distance (km) Brightness Sun altitude
Rises 22:26:40 0° 191° (S) 3,155 8.1 -11.9°
Reaches altitude 10° 22:29:00 10° 190° (S) 2,232 7.3 -12.4°
Maximum altitude 22:34:03 81° 103° (ESE) 745 4.3 -13.5°
Drops below altitude 10° 22:39:06 10° 16° (NNE) 2,237 6.6 -14.7°
Enters shadow 22:40:03 - 16° (NNE) 2,612 6.9 -14.9°
